This is the latest recevied weather packets stored in our database for station/object OK2ILA-1. If no packets are shown the sender has not sent any weather packets the latest 10 day(s).
| Time | Temp. | Humidity | Pressure | Rain* | Wind** | Luminosity | Snow |
|---|---|---|---|---|---|---|---|
| 1777991945 | 25.56° C | 100% | 1007.8 hPa | 0 mm | - | - | - |
| 1777991225 | 26.11° C | 100% | 1007.9 hPa | 0 mm | - | - | - |
| 1777990504 | 26.11° C | 100% | 1008 hPa | 0 mm | - | - | - |
| 1777989783 | 25.56° C | 100% | 1008.1 hPa | 0 mm | - | - | - |
| 1777989063 | 26.67° C | 100% | 1008.1 hPa | 0 mm | - | - | - |
| 1777988342 | 25.56° C | 100% | 1008.2 hPa | 0 mm | - | - | - |
| 1777987621 | 25° C | 100% | 1008.3 hPa | 0 mm | - | - | - |
| 1777986901 | 25° C | 100% | 1008.3 hPa | 0 mm | - | - | - |
| 1777986180 | 25.56° C | 100% | 1008.2 hPa | 0 mm | - | - | - |
| 1777985459 | 26.11° C | 100% | 1008.4 hPa | 0 mm | - | - | - |
| 1777984739 | 26.11° C | 100% | 1008.6 hPa | 0 mm | - | - | - |
| 1777984018 | 26.11° C | 100% | 1008.6 hPa | 0 mm | - | - | - |
| 1777983297 | 25.56° C | 100% | 1008.9 hPa | 0 mm | - | - | - |
| 1777982576 | 25.56° C | 100% | 1008.9 hPa | 0 mm | - | - | - |
| 1777981856 | 26.11° C | 100% | 1009 hPa | 0 mm | - | - | - |
| 1777981135 | 25.56° C | 100% | 1009.1 hPa | 0 mm | - | - | - |
| 1777980414 | 25° C | 100% | 1009.2 hPa | 0 mm | - | - | - |
| 1777979694 | 25.56° C | 100% | 1009.3 hPa | 0 mm | - | - | - |
| 1777978973 | 23.89° C | 100% | 1009.3 hPa | 0 mm | - | - | - |
| 1777978252 | 24.44° C | 100% | 1009.4 hPa | 0 mm | - | - | - |
| 1777977532 | 25° C | 100% | 1009.5 hPa | 0 mm | - | - | - |
| 1777976811 | 25° C | 100% | 1009.6 hPa | 0 mm | - | - | - |
| 1777976090 | 23.33° C | 100% | 1009.8 hPa | 0 mm | - | - | - |
| 1777975370 | 23.33° C | 100% | 1010 hPa | 0 mm | - | - | - |
| 1777974649 | 23.33° C | 100% | 1010 hPa | 0 mm | - | - | - |
* Rain latest hour (hover to see other rain measurements)
** Current wind speed in m/s (hover to see current wind gust speed)